Regional Weather Roundup
Issued by NWS

Home | Current Version | Previous Version | Graphics & Text | Print | Product List | Glossary On
Versions: 1 2 3 4 5 6 7 8 9 10 11 12 13 14 15 16 17 18 19 20 21 22 23 24 25 26 27 28 29 30 31 32 33 34 35 36 37 38 39 40 41 42 43 44 45 46 47 48 49 50
542
ASUS43 KOAX 121610
RWRNE

WEATHER ROUNDUP FOR NEBRASKA
NATIONAL WEATHER SERVICE OMAHA NE
1000 AM CST FRI FEB 12 2016

NOTES: SATELLITE DATA IS BEING USED TO AUGMENT CLOUD COVER ABOVE
       12000 FEET.
       "FAIR" INDICATES FEW OR NO CLOUDS BELOW 12,000 FEET WITH NO
       SIGNIFICANT WEATHER AND/OR OBSTRUCTIONS TO VISIBILITY.

  * THESE STATIONS DO NOT REPORT WEATHER SUCH AS RAIN...SNOW OR FOG.

NEZ001>004-019>022-054>056-121700-
NEBRASKA PANHANDLE

CITY           SKY/WX    TMP DP  RH WIND       PRES   REMARKS
SCOTTSBLUFF    CLOUDY    36  30  79 NE7       30.35R WCI  30
ALLIANCE       FOG       30  30 100 NE8       30.36R VSB 1/4 WCI  22
CHADRON        CLOUDY    32  30  92 E3        30.40R
KIMBALL        CLOUDY    38  30  73 CALM      30.33R
SIDNEY         CLOUDY    38  31  76 NW5       30.34R WCI  34
$$

NEZ057>060-069>072-079>082-121700-
SOUTHWEST NEBRASKA

CITY           SKY/WX    TMP DP  RH WIND       PRES   REMARKS
NORTH PLATTE   CLOUDY    35  29  78 N15       30.39R WCI  25
IMPERIAL       CLOUDY    31  29  92 E6        30.37R WCI  25
LEXINGTON      CLOUDY    34  29  84 N8        30.41R WCI  27
MCCOOK         CLOUDY    29  27  92 CALM      30.40R
OGALLALA       FOG       31  30  95 CALM      30.38R VSB 1/2
$$

NEZ005>010-023>029-035>040-094-121700-
NORTH CENTRAL NEBRASKA

CITY           SKY/WX    TMP DP  RH WIND       PRES   REMARKS
VALENTINE      CLOUDY    24  20  84 N9        30.44R WCI  14
AINSWORTH      CLOUDY    23  22  95 N10       30.43R FOG     WCI  13
BROKEN BOW     CLOUDY    31  27  85 N12       30.40R WCI  22
O`NEILL        CLOUDY    21  17  83 N13       30.47R WCI   8
ORD            CLOUDY    27  25  92 NE12      30.42R WCI  17
THEDFORD       CLOUDY    31  29  94 N6        30.41R FOG     WCI  25
$$

NEZ041-046>049-061>064-073>077-083>087-121700-
SOUTH CENTRAL NEBRASKA

CITY           SKY/WX    TMP DP  RH WIND       PRES   REMARKS
GRAND ISLAND   CLOUDY    28  24  85 NE9       30.44R WCI  19
AURORA         CLOUDY    27  25  89 NE7       30.44R WCI  20
HASTINGS       CLOUDY    30  23  75 N6        30.42R WCI  24
HEBRON         CLOUDY    29  25  84 N6        30.45R WCI  23
HOLDREGE       CLOUDY    32  28  86 NE6       30.41R WCI  26
KEARNEY *      CLOUDY    30  25  80 N8        30.42R WCI  23
YORK           CLOUDY    27  23  86 N13       30.45R WCI  16
$$

NEZ011>018-030>034-042>045-121700-
NORTHEAST NEBRASKA

CITY           SKY/WX    TMP DP  RH WIND       PRES   REMARKS
NORFOLK        CLOUDY    22  15  75 N20       30.46R WCI   7
ALBION         CLOUDY    23  20  91 N12       30.46R FOG     WCI  11
BLAIR          CLOUDY    23  17  78 N14G22    30.45R WCI  10
COLUMBUS *     CLOUDY    25  12  58 N13       30.47R WCI  13
FREMONT        CLOUDY    23  16  75 N9        30.47R WCI  13
TEKAMAH        CLOUDY    21  15  78 N14       30.49R WCI   8
WAYNE          CLOUDY    20  13  74 N10       30.48R WCI   9
$$

NEZ050>053-065>068-078-088>093-121700-
SOUTHEAST NEBRASKA

CITY           SKY/WX    TMP DP  RH WIND       PRES   REMARKS
LINCOLN        CLOUDY    26  20  77 N12       30.47R WCI  16
OMAHA EPPLEY   CLOUDY    23  16  74 N18       30.46R WCI   9
BEATRICE       CLOUDY    27  21  78 N9        30.45R WCI  17
FALLS CITY     CLOUDY    27  18  69 N14G21    30.44R WCI  16
NEBRASKA CITY  CLOUDY    25  19  79 N13       30.44R WCI  13
PLATTSMOUTH    CLOUDY    23  17  80 N12       30.45R WCI  11
$$

NEZ044-045-051>053-067-121700-
OMAHA AREA

CITY           SKY/WX    TMP DP  RH WIND       PRES   REMARKS
OMAHA EPPLEY   CLOUDY    23  16  74 N18       30.46R WCI   9
BLAIR          CLOUDY    23  17  78 N14G22    30.45R WCI  10
FREMONT        CLOUDY    23  16  75 N9        30.47R WCI  13
MILLARD        CLOUDY    24  17  76 N8        30.47R WCI  15
OFFUTT AFB     CLOUDY    24  16  69 N14G20    30.46R WCI  12
PLATTSMOUTH    CLOUDY    23  17  80 N12       30.45R WCI  11
WAHOO          CLOUDY    24  18  77 N20       30.46R WCI  10
$$




USA.gov is the U.S. government's official web portal to all federal, state and local government web resources and services.